Notices

What's New in latest Release from April 7th, 2021:

- Updated Glossary, including Speed of Maximum Gust, and Total Hourly Precipitation

- Updated national and regional climate services offices contacts and prices information

- Addition of station inventory lists for 1981-2010, 1971-2000, and 1961-1990 Normals.

If you haven't already, please take our survey and provide feedback about our website: https://eccc.sondage-survey.ca/f/LanguageSelection.aspx?s=442ca660-fcf1-47c0-95a9-59707d6fd709

Hourly Data Report for March 14, 2021

NANAIMO A
BRITISH COLUMBIA
Current Station Operator: NAVCAN

49°03'16.000" N
123°52'12.000" W
28.00 m
1025365
YCD

Download Data

Hourly Data (March 2021)
Hourly Data Report for March 14, 2021
TIME
LST
Temp Definition
°C
Dew Point Definition
°C
Rel Hum Definition
%
Precip. Amount Definition
mm

Wind Dir Definition
10's deg

Wind Spd Definition
km/h
Visibility Definition
km
Stn Press Definition
kPa
Hmdx Definition


Wind Chill Definition


Weather Definition


00:00 4.3 3.1 92 LegendMM 10 1 LegendMM 101.08     LegendNANA
01:00 4.3 3.2 93 LegendMM 20 2 LegendMM 101.03     LegendNANA
02:00 4.0 2.9 92 LegendMM 0 1 LegendMM 100.94     LegendNANA
03:00 4.1 3.1 93 LegendMM 35 3 LegendMM 100.83     LegendNANA
04:00 4.5 3.6 94 LegendMM 29 3 LegendMM 100.77     LegendNANA
05:00 4.8 3.3 90 LegendMM 23 6 LegendMM 100.70     LegendNANA
06:00 5.2 3.1 87 LegendMM 24 6 LegendMM 100.73     LegendNANA
07:00 5.0 4.2 95 LegendMM 18 1 LegendMM 100.67     LegendNANA
08:00 4.9 4.7 99 LegendMM 7 1 LegendMM 100.63     LegendNANA
09:00 6.1 5.5 96 LegendMM 24 3 LegendMM 100.58     LegendNANA
10:00 7.0 6.0 94 LegendMM 13 9 LegendMM 100.57     LegendNANA
11:00 7.4 6.3 92 LegendMM 13 16 LegendMM 100.58     LegendNANA
12:00 8.1 6.6 90 LegendMM 20 5 LegendMM 100.66     LegendNANA
13:00 8.3 1.4 62 LegendMM 26 15 LegendMM 100.68     LegendNANA
14:00 10.2 -1.3 44 LegendMM 27 9 LegendMM 100.64     LegendNANA
15:00 7.6 2.1 68 LegendMM 35 25 LegendMM 100.78     LegendNANA
16:00 5.8 1.4 73 LegendMM 34 18 LegendMM 100.89     LegendNANA
17:00 5.5 -1.2 62 LegendMM 33 26 LegendMM 100.99     LegendNANA
18:00 4.9 -1.2 64 LegendMM 31 12 LegendMM 101.09     LegendNANA
19:00 4.0 -0.7 71 LegendMM 28 9 LegendMM 101.20     LegendNANA
20:00 3.3 -3.2 62 LegendMM 34 3 LegendMM 101.28     LegendNANA
21:00 3.5 -3.5 60 LegendMM 26 4 LegendMM 101.38     LegendNANA
22:00 3.1 -5.0 55 LegendMM 28 9 LegendMM 101.44     LegendNANA
23:00 2.3 -5.8 55 LegendMM 26 10 LegendMM 101.48     LegendNANA

Notes on Data Quality.

Legend

  • E = Estimated
  • M = Missing
  • NA = Not Available*
  • [empty] = Indicates an unobserved value
Date modified: